canvanizer.com alexa rank chart, canvanizer.com alexa rank daily changes

canvanizer.com alexa rank chart, canvanizer.com alexa rank daily changes

canvanizer.com
Actual rank:
78 694

RANK HISTORY

Date Rank Diff
2017/06/23 78 694 -848
2017/06/22 79 542 -836
2017/06/21 80 378 +690
2017/06/20 79 688 -302
2017/06/19 79 990 +1 671
2017/06/18 78 319 +386
2017/06/17 77 933 +560
2017/06/16 77 373 +257
2017/06/15 77 116 -708
2017/06/14 77 824 +878
2017/06/13 76 946 +136
2017/06/12 76 810 +360
2017/06/11 76 450 -444
2017/06/10 76 894 -860
2017/06/09 77 754 +225
2017/06/08 77 529 -216
2017/06/07 77 745 -152
2017/06/06 77 897 +949
2017/06/05 76 948 -89
2017/06/04 77 037 +147
2017/06/03 76 890 -3 327
2017/06/02 80 217 -967
2017/06/01 81 184 -379
2017/05/31 81 563 -1 020
2017/05/30 82 583 +339
2017/05/29 82 244 -1 629
2017/05/28 83 873 +1 330
2017/05/27 82 543 -842
2017/05/26 83 385 -865
2017/05/25 84 250 -1 589
2017/05/24 85 839 -2 832
2017/05/23 88 671 +1 263
2017/05/22 87 408 +296
2017/05/21 87 112 +1 013
2017/05/20 86 099 +1 080
2017/05/19 85 019 -1 190
2017/05/18 86 209 -1 031
2017/05/17 87 240 -1 045
2017/05/16 88 285 -1 100
2017/05/15 89 385 -323
2017/05/14 89 708 -939
2017/05/13 90 647 -1 307
2017/05/12 91 954 +922
2017/05/11 91 032 +2 233
2017/05/10 88 799 +823
2017/05/09 87 976 +615
2017/05/08 87 361 +161
2017/05/07 87 200 +3 243
2017/05/06 83 957 +256
2017/05/05 83 701 +1 010
2017/05/04 82 691 +378
2017/05/03 82 313 +172
2017/05/02 82 141 +718
2017/05/01 81 423 +1 600
2017/04/30 79 823 +1 187
2017/04/29 78 636 +2 134
2017/04/28 76 502 -542
2017/04/27 77 044 -827
2017/04/26 77 871 -987
2017/04/25 78 858 +914
2017/04/24 77 944

WIDGET FOR YOUR SITE

DOMAINS WITH THE NEAREST RANK

Domain Rank
mafengwo.net 78 689
earlbox.com 78 690
gonoise.com 78 691
vshkole.com 78 692
navcanada.ca 78 693
canvanizer.com 78 694
highspeedinternet.com 78 695
8h9.space 78 696
jeftinije.hr 78 697
mara.gov.my 78 698
hissi.org 78 699

DOMAINS WITH THE NEAREST RANK BY TLD .com

Domain Rank
leaddyno.com 78 685
akhayar.com 78 688
earlbox.com 78 690
gonoise.com 78 691
vshkole.com 78 692
canvanizer.com 78 694
highspeedinternet.com 78 695
funplough.com 78 701
naoleveportras.com 78 703
momshere.com 78 704
18pornsex.com 78 706